Regional Weather Roundup
Issued by NWS

Home | Current Version | Previous Version | Text Only | Print | Product List | Glossary Off
Versions: 1 2 3 4 5 6 7 8 9 10 11 12 13 14 15 16 17 18 19 20 21 22 23 24 25 26 27 28 29 30 31 32 33 34 35 36 37 38 39 40 41 42 43 44 45 46 47 48 49 50

240
ASUS43 KBIS 250710
RWRND
NORTH DAKOTA REGIONAL WEATHER ROUNDUP
NATIONAL WEATHER SERVICE EASTERN NORTH DAKOTA/GRAND FORKS ND
200 AM CDT THU MAY 25 2017

  NOTE: "FAIR" INDICATES FEW OR NO CLOUDS BELOW 12,000 FEET WITH NO
  SIGNIFICANT WEATHER AND/OR OBSTRUCTIONS TO VISIBILITY.

NDZ001>003-009>011-017-250800-
...NORTHWEST NORTH DAKOTA...

CITY           SKY/WX    TMP DP  RH WIND       PRES   REMARKS
WILLISTON      FAIR      53  50  89 S8        29.37F
MINOT          LGT RAIN  57  50  77 SE8       29.43F
MINOT AFB      LGT RAIN  55  52  88 S9        29.41F FOG
$$

NDZ018>021-031>035-040>046-250800-
...SOUTHWEST NORTH DAKOTA...

CITY           SKY/WX    TMP DP  RH WIND       PRES   REMARKS
BISMARCK       LGT RAIN  56  47  71 SE10      29.46S
DICKINSON      CLOUDY    51  48  89 N10       29.41F
GARRISON         N/A     52  48  86 S8        29.44F
HETTINGER      FAIR      51  46  83 N12       29.41S
$$

NDZ004>008-012>016-024-026-027-054-250800-
...NORTHEAST NORTH DAKOTA...

CITY           SKY/WX    TMP DP  RH WIND       PRES   REMARKS
GRAND FORKS    FAIR      51  43  74 SE10      29.60F
GRAND FORKS AF FAIR      50  42  74 SE9       29.59F
DEVILS LAKE    FAIR      52  44  74 SE22      29.54F
$$

NDZ022-023-025-028>030-036>039-047>053-250800-
...SOUTHEAST NORTH DAKOTA...

CITY           SKY/WX    TMP DP  RH WIND       PRES   REMARKS
JAMESTOWN      FAIR      50  43  77 SE15      29.55R
FARGO          FAIR      53  42  66 SE13      29.60F
WAHPETON       FAIR      50  41  71 SE13      29.62S
$$




USA.gov is the U.S. government's official web portal to all federal, state and local government web resources and services.